OSCAR 7 (AO-7) 1 07530U 74089B 26104.80835497 -.00000031 00000+0 99650-4 0 9997 2 07530 101.9943 117.3869 0011881 251.4630 281.9682 12.53697074352571 PHASE 3B (AO-10) 1 14129U 83058B 26102.81319713 -.00000295 00000+0 00000+0 0 9990 2 14129 25.8997 230.4827 6034279 97.6141 330.5213 2.05874162294146 UOSAT 2 (UO-11) 1 14781U 84021B 26104.85657553 .00000919 00000+0 99434-4 0 9994 2 14781 97.8006 71.1670 0008612 42.2604 317.9276 14.90630907247692 LUSAT (LO-19) 1 20442U 90005G 26104.62229988 .00000078 00000+0 44416-4 0 9992 2 20442 98.8901 124.6628 0012215 37.3180 322.8850 14.34102982893283 EYESAT A (AO-27) 1 22825U 93061C 26104.43865962 .00000051 00000+0 36388-4 0 9991 2 22825 98.6918 171.8634 0007258 289.9293 70.1107 14.30924935697880 ITAMSAT (IO-26) 1 22826U 93061D 26104.15741048 .00000058 00000+0 38819-4 0 9997 2 22826 98.6867 171.4931 0007731 271.7193 88.3104 14.31350112698154 RADIO ROSTO (RS15) 1 23439U 94085A 26104.79197785 -.00000052 00000+0 -27928-3 0 9992 2 23439 64.8192 45.7413 0154050 15.3821 345.1711 11.27583861288756 JAS-2 (FO-29) 1 24278U 96046B 26104.87384285 -.00000018 00000+0 20178-4 0 9997 2 24278 98.5320 322.3888 0348812 260.7189 95.4354 13.53271141464603 TECHSAT 1B (GO-32) 1 25397U 98043D 26104.70492750 .00000033 00000+0 34438-4 0 9998 2 25397 99.0057 95.8692 0002137 61.6834 298.4559 14.24415740442293 ISS (ZARYA) 1 25544U 98067A 26104.84437811 .00006957 00000+0 13466-3 0 9998 2 25544 51.6321 253.5853 0006504 313.2650 46.7795 15.48918397561933 PCSAT (NO-44) 1 26931U 01043C 26104.52959816 .00000056 00000+0 52057-4 0 9990 2 26931 67.0516 48.9154 0006677 264.3741 95.6600 14.31930927281334 SAUDISAT 1C (SO-50) 1 27607U 02058C 26104.36124041 .00000490 00000+0 75982-4 0 9998 2 27607 64.5526 326.4408 0075539 274.0911 85.1564 14.82907422254999 CUTE-1 (CO-55) 1 27844U 03031E 26104.46186940 .00000209 00000+0 10934-3 0 9993 2 27844 98.6765 113.8179 0009852 18.0224 342.1302 14.24295708182603 CUBESAT XI-IV (CO-57) 1 27848U 03031J 26103.57507156 .00000185 00000+0 10026-3 0 9999 2 27848 98.6796 112.7063 0010141 37.9126 322.2764 14.23586039182188 MOZHAETS 4 (RS22) 1 27939U 03042A 26104.86032759 .00000617 00000+0 10345-3 0 9991 2 27939 98.3465 287.4352 0012483 107.6183 359.4305 14.73353221206224 CUBESAT XI-V 1 28895U 05043F 26104.86908954 .00000878 00000+0 14655-3 0 9992 2 28895 98.2906 259.1951 0014942 50.4277 309.8247 14.72464120 92437 CUTE-1.7+APD II (CO-65) 1 32785U 08021C 26104.86172903 .00002708 00000+0 17613-3 0 9992 2 32785 97.8245 85.0082 0007292 237.9227 122.1294 15.08855999975648 SEEDS II (CO-66) 1 32791U 08021J 26104.43703382 .00009383 00000+0 31979-3 0 9990 2 32791 97.7523 99.4047 0004126 138.8857 221.2694 15.30601442977536 YUBILEINY (RS30) 1 32953U 08025A 26104.84266176 .00000054 00000+0 31350-3 0 9993 2 32953 82.5063 34.8343 0020591 88.6227 271.7212 12.43177784811829 KKS-1 (KISEKI) 1 33499U 09002H 26104.83472860 .00000822 00000+0 10805-3 0 9998 2 33499 98.1189 26.2834 0008898 128.9501 231.2506 14.82959501926808 SWISSCUBE 1 35932U 09051B 26104.19559638 .00000643 00000+0 13697-3 0 9997 2 35932 98.4073 10.9647 0007962 57.3265 302.8702 14.62356031879809 BEESAT-1 1 35933U 09051C 26104.65136913 .00000503 00000+0 11110-3 0 9999 2 35933 98.4001 11.1955 0006532 69.0028 291.1870 14.61614819879902 ITUPSAT1 1 35935U 09051E 26104.17572017 .00000489 00000+0 11121-3 0 9992 2 35935 98.4089 9.9714 0008771 78.6877 281.5308 14.60342610879391 XIWANG-1 (HOPE-1) 1 36122U 09072B 26104.86061771 -.00000055 00000+0 -28765-4 0 9994 2 36122 100.3967 59.7202 0007845 22.8596 337.2865 13.16436742784676 O/OREOS (USA 219) 1 37224U 10062C 26104.63612419 .00001458 00000+0 14421-3 0 9994 2 37224 71.9700 224.2585 0015087 194.9766 165.0959 14.93488469107150 JUGNU 1 37839U 11058B 26103.99465079 .00000406 00000+0 72464-4 0 9992 2 37839 19.9624 338.4145 0018601 87.7923 315.9848 14.13756823749933 SRMSAT 1 37841U 11058D 26104.61807969 .00000358 00000+0 50572-4 0 9995 2 37841 19.9717 84.2347 0011634 223.7287 292.4418 14.11560239748824 STRAND-1 1 39090U 13009E 26104.56014111 .00000193 00000+0 79145-4 0 9998 2 39090 98.3911 286.3640 0009722 65.2452 294.9746 14.37125228687925 ZACUBE-1 (TSHEPISOSAT) 1 39417U 13066B 26104.87402616 .00002285 00000+0 18172-3 0 9995 2 39417 97.8127 66.8749 0044951 103.1758 257.4486 15.00667069671233 GOMX-1 1 39430U 13066Q 26104.85302553 .00000963 00000+0 15238-3 0 9998 2 39430 97.6541 309.3007 0127634 281.1522 77.5358 14.69232815660614 CUBEBUG-2 (LO-74) 1 39440U 13066AA 26104.81769558 .00001855 00000+0 17739-3 0 9996 2 39440 97.8861 53.5706 0056544 236.6990 122.8807 14.93335670667532 FUNCUBE-1 (AO-73) 1 39444U 13066AE 26104.86471219 .00005573 00000+0 35475-3 0 9997 2 39444 97.8231 75.0488 0038536 60.7459 299.7613 15.08584893670117 UWE-3 1 39446U 13066AG 26103.43540102 .00002441 00000+0 21488-3 0 9999 2 39446 97.8655 59.1237 0049495 173.3046 186.8847 14.96527693667890 UNISAT-6 1 40012U 14033C 26104.38646092 .00001580 00000+0 17588-3 0 9994 2 40012 97.7790 258.2669 0043939 278.8805 80.7438 14.87876771636676 DUCHIFAT-1 1 40021U 14033M 26104.86469699 .00040518 00000+0 61071-3 0 9993 2 40021 98.0560 155.6851 0003097 285.1632 74.9277 15.54684704645885 QB50P1 1 40025U 14033R 26104.59506308 .00004204 00000+0 21478-3 0 9995 2 40025 98.0997 111.3272 0010755 85.9129 274.3332 15.17261809643382 LILACSAT-2 1 40908U 15049K 26104.82671788 .00010537 00000+0 19358-3 0 9994 2 40908 97.4747 139.3297 0008833 117.9344 242.2802 15.49387253585933 FOX-1A (AO-85) 1 40967U 15058D 26104.42202824 .00001456 00000+0 14255-3 0 9997 2 40967 64.7725 117.0845 0128374 81.6261 279.9381 14.90582887104066 CAS-2T & KS-1Q 1 41847U 16066G 26104.44800395 .00000374 00000+0 62558-4 0 9992 2 41847 98.3840 180.9010 0341482 323.1257 34.6882 14.44554141495598 RADFXSAT (FOX-1B) 1 43017U 17073E 26104.61490507 .00004040 00000+0 18232-3 0 9994 2 43017 97.4804 333.1591 0153403 187.3323 172.5665 15.11591535455784 DIWATA-2B 1 43678U 18084H 26104.80980950 .00001337 00000+0 11217-3 0 9999 2 43678 98.1052 298.3337 0013862 21.6166 338.5638 15.00146505406713 ES'HAIL 2 1 43700U 18090A 26104.80567102 .00000149 00000+0 00000+0 0 9996 2 43700 0.0142 249.0402 0001174 155.3843 114.3768 1.00272007 27048 FOX-1CLIFF (AO-95) 1 43770U 18099N 26104.40630258 .00005552 00000+0 22287-3 0 9999 2 43770 97.4444 164.9389 0008558 202.4944 157.5920 15.25352680403492 ITASAT 1 43786U 18099AE 26104.63468859 .00003640 00000+0 18075-3 0 9993 2 43786 97.4099 157.4335 0012160 207.1904 152.8694 15.18247189403265 JY1SAT (JO-97) 1 43803U 18099AX 26104.63374980 .00008396 00000+0 27687-3 0 9996 2 43803 97.4191 167.3304 0007311 131.4510 228.7360 15.31669786403896 UWE-4 1 43880U 18111E 26104.57888846 .00016577 00000+0 38501-3 0 9997 2 43880 97.5859 30.2375 0008277 174.4076 185.7265 15.42404792400962 TIANYAN 01 1 44881U 19093C 26104.83585784 .00000937 00000+0 11210-3 0 9994 2 44881 97.7562 178.6086 0012218 299.2854 60.7140 14.86419867342003 RS-44 & BREEZE-KM R/B 1 44909U 19096E 26104.52218307 .00000001 00000+0 -30916-4 0 9996 2 44909 82.5263 22.0082 0216465 293.4051 64.4419 12.79747898294203 SALSAT 1 46495U 20068K 26104.87438839 .00004746 00000+0 17197-3 0 9995 2 46495 97.8862 104.1326 0010673 155.1560 205.0194 15.28868199305687 XW-3 (CAS-9) 1 50466U 21131B 26104.88175044 .00000192 00000+0 73130-4 0 9998 2 50466 98.4947 197.6266 0002912 295.7688 64.3201 14.41295613225999 GREENCUBE (IO-117) 1 53109U 22080E 26104.52900949 -.00000003 00000+0 00000+0 0 9993 2 53109 70.1491 320.3949 0008894 304.3001 55.6817 6.42583333 87972 UMKA 1 (RS40S) 1 57172U 23091G 26104.84839590 .00003325 00000+0 15682-3 0 9993 2 57172 97.5111 163.8055 0012268 347.8036 12.2900 15.20117361154388 CUBESX-HSE 3 (RS42S) 1 57178U 23091N 26104.81613911 .00006801 00000+0 23897-3 0 9992 2 57178 97.5145 169.6662 0009727 321.8657 38.1894 15.29675530154730 MONITOR-3 (RS58S) 1 57180U 23091Q 26104.83869838 .00005517 00000+0 21320-3 0 9990 2 57180 97.5140 167.8659 0010746 328.8093 31.2506 15.26613052154628 MONITOR-4 (RS57S) 1 57182U 23091S 26104.82170300 .00005320 00000+0 20514-3 0 9996 2 57182 97.5134 167.8157 0010722 329.3455 30.7155 15.26707306154628 MONITOR-2 (RS39S) 1 57184U 23091U 26104.85893433 .00002655 00000+0 13255-3 0 9992 2 57184 97.5135 163.5605 0010509 340.9211 19.1628 15.18338312154347 SVYATOBOR 1 (RS60S) 1 57187U 23091X 26104.84956376 .00004962 00000+0 19829-3 0 9996 2 57187 97.5145 168.3528 0008277 321.8336 38.2314 15.25566440154654 VIZARD-METEO (RS38S) 1 57189U 23091Z 26104.84924934 .00008724 00000+0 26687-3 0 9993 2 57189 97.5138 173.1519 0005987 298.5001 61.5638 15.34081062154971 NANOZOND 1 (RS49S) 1 57190U 23091AA 26104.38366492 .00936085 48226-3 12149-2 0 9996 2 57190 97.4923 188.1367 0010748 262.5615 97.4445 16.07069248155938 POLYTECH-UNIVERSE 3 (R*) 1 57191U 23091AB 26104.82850457 .00002797 00000+0 13848-3 0 9991 2 57191 97.5109 163.0358 0015261 356.1071 4.0042 15.18533753154337 UTMN 2 (RS27S) 1 57203U 23091AP 26104.80384256 .00006942 00000+0 23762-3 0 9994 2 57203 97.5138 171.2094 0006768 308.1291 51.9339 15.30542111154842 KUZGTU 1 (RS47S) 1 57217U 23091AV 26104.81969080 .00006036 00000+0 22039-3 0 9994 2 57217 97.5119 168.7100 0009970 325.9528 34.1070 15.28459437154696 SONATE-2 1 59112U 24043Q 26104.87454970 .00023876 00000+0 36579-3 0 9996 2 59112 97.5453 251.6422 0007334 79.4838 280.7242 15.54314096118048 MESAT1 1 60209U 24125G 26104.85701109 .00026632 00000+0 36679-3 0 9997 2 60209 97.2398 321.1677 0012601 94.2426 266.0270 15.57126889 99699 OOV-CUBE (TUBSAT-30) 1 60240U 24128F 26104.90309068 .00001311 00000+0 11156-3 0 9999 2 60240 61.9931 86.1873 0051537 119.9338 240.6885 15.02462888 96609 COLIBRI-S (RS67S) 1 61746U 24199M 26104.90526367 .00011836 00000+0 25106-3 0 9995 2 61746 97.3098 338.2762 0010210 141.8621 218.3352 15.45158182127633 HORS 3 (RS81S) 1 61753U 24199U 26104.80732722 .00018900 00000+0 32764-3 0 9993 2 61753 97.3075 339.5603 0008507 142.7851 217.3992 15.50894283127729 HORS 4 (RS82S) 1 61754U 24199V 26104.80258821 .00026076 00000+0 39868-3 0 9992 2 61754 97.3038 340.4096 0008037 138.4298 221.7568 15.54341882127781 HORIZON (RS59S) 1 61757U 24199Y 26104.86141373 .00179063 00000+0 77728-3 0 9996 2 61757 97.2963 345.6083 0006652 130.1623 230.0230 15.84338665128121 ARCTICSAT 1 (RS74S) 1 61762U 24199AD 26104.83228686 .00100931 00000+0 67688-3 0 9994 2 61762 97.3002 344.7496 0007140 121.5121 238.6842 15.74907312128066 SIT-2086 1 61764U 24199AF 26104.84268564 .00013250 00000+0 24174-3 0 9996 2 61764 97.3065 340.2664 0007857 131.9407 228.2515 15.49526237124616 HYPERVIEW 1G (RS66S) 1 61772U 24199AP 26104.85377632 .00047432 00000+0 51080-3 0 9998 2 61772 97.3012 341.9983 0009215 138.3383 221.8580 15.63524690124745 ALTAIR (RS65S) 1 61779U 24199AW 26104.80638441 .00006117 00000+0 17718-3 0 9993 2 61779 97.3126 334.6012 0013529 166.5024 193.6584 15.35850356127381 ASRTU-1 (AO-123) 1 61781U 24199AY 26104.87468743 .00004600 00000+0 13852-3 0 9999 2 61781 97.3098 334.1282 0014406 169.1289 191.0268 15.34750698124210 TUSUR GO (RS78S) 1 61782U 24199AZ 26104.83801462 .00257589 00000+0 94344-3 0 9996 2 61782 97.2910 344.6564 0007128 140.7967 219.3823 15.87679072124926 SAMSAT-IONOSPHERE (RS7*) 1 61784U 24199BB 26104.86316564 .00025107 00000+0 40897-3 0 9998 2 61784 97.3059 339.4817 0011013 146.5748 213.6203 15.52558923127728 RTU MIREA 1 (RS51S) 1 61785U 24199BC 26104.81101372 .00029844 00000+0 44544-3 0 9998 2 61785 97.3050 339.9916 0011079 143.9645 216.2359 15.54943086124609 TEVEL2-4 1 63213U 25052D 26104.62513587 .00009013 00000+0 29017-3 0 9993 2 63213 97.3980 0.9965 0002519 27.4123 332.7251 15.32441433 60377 TEVEL2-5 1 63214U 25052E 26104.63916523 .00009234 00000+0 29852-3 0 9994 2 63214 97.3978 0.9753 0002507 27.4017 332.7356 15.32300235 60379 TEVEL2-6 1 63215U 25052F 26104.64993691 .00009505 00000+0 30758-3 0 9995 2 63215 97.3983 0.9713 0002594 25.1375 334.9992 15.32260434 60376 TEVEL2-1 1 63217U 25052H 26104.46254423 .00009315 00000+0 30586-3 0 9998 2 63217 97.3953 0.4796 0003177 34.6991 325.4457 15.31794864 60333 TEVEL2-3 1 63218U 25052J 26104.45920779 .00009500 00000+0 31146-3 0 9991 2 63218 97.3957 0.4912 0003219 34.7625 325.3826 15.31838236 60331 TEVEL2-2 1 63219U 25052K 26103.67922106 .00009195 00000+0 30205-3 0 9996 2 63219 97.3954 359.6991 0003274 36.9163 323.2303 15.31785334 60211 TEVEL2-9 1 63237U 25052AD 26104.62354769 .00007868 00000+0 27346-3 0 9993 2 63237 97.4014 0.1454 0006883 26.3126 333.8463 15.29989969 60303 TEVEL2-7 1 63238U 25052AE 26104.45705609 .00008696 00000+0 30426-3 0 9991 2 63238 97.4020 359.9201 0007014 26.5119 333.6479 15.29739584 60274 TEVEL2-8 1 63239U 25052AF 26103.61418883 .00008203 00000+0 28746-3 0 9990 2 63239 97.4017 359.0601 0007132 30.0262 330.1386 15.29705162 60146 HADES-ICM 1 63492U 25052BN 26104.47883696 .00158505 00000+0 12433-2 0 9990 2 63492 97.3893 6.5635 0003945 81.3378 278.8331 15.71060930 60731 INNOSAT 16 (RS92S7) 1 64878U 25155C 26104.81793235 .00003497 00000+0 14392-3 0 9996 2 64878 97.4513 72.2030 0012196 55.7256 304.5135 15.24739234 71017 GEOSCAN 6 (RS92S6) 1 64879U 25155D 26104.85314375 .00006723 00000+0 24175-3 0 9990 2 64879 97.4509 73.2399 0009542 52.6957 307.5151 15.28916217 71087 GEOSCAN 1 (RS92S1) 1 64880U 25155E 26104.87809470 .00006991 00000+0 24753-3 0 9998 2 64880 97.4507 73.3630 0009498 53.0468 307.1640 15.29408713 71096 239ALFEROV (RS61S) 1 64881U 25155F 26104.86447161 .00009273 00000+0 30979-3 0 9996 2 64881 97.4509 73.7168 0009151 53.7600 306.4486 15.31206772 71117 GEOSCAN 2 (RS92S2) 1 64890U 25155Q 26104.81796205 .00006853 00000+0 24060-3 0 9992 2 64890 97.4505 73.4290 0008464 43.2202 316.9701 15.29701690 71093 GEOSCAN 5 (RS92S5) 1 64891U 25155R 26104.86678801 .00009272 00000+0 30668-3 0 9998 2 64891 97.4501 73.8320 0008212 60.5088 299.6972 15.31537206 71127 GEOSCAN 4 (RS92S4) 1 64892U 25155S 26104.85656072 .00009315 00000+0 30696-3 0 9993 2 64892 97.4505 73.8539 0008236 60.8382 299.3682 15.31656350 71127 GEOSCAN 3 (RS92S3) 1 64893U 25155T 26104.86544431 .00011384 00000+0 35643-3 0 9996 2 64893 97.4494 74.1298 0008106 63.2705 296.9366 15.33242399 71143 INNOSAT 3 (RS92S0) 1 64894U 25155U 26104.83061154 .00022384 00000+0 57032-3 0 9998 2 64894 97.4457 75.0408 0007782 67.9982 292.2090 15.39533049 71204 KNACKSAT-2 1 67683U 98067XZ 26104.43290565 .00023109 00000+0 34523-3 0 9991 2 67683 51.6301 253.8399 0011305 320.3591 39.6572 15.54855751 10346